Wind_Speed
61 64 65 64 63 60 57 54 52 50 49 46 44 43 42 41 41 41 42 43 45 45 45 46 49 52 54 56 58 58 59 61 62 63 64 65 65 66 67 69 72 75 79
56 61 63 62 62 59 56 54 52 50 47 45 42 41 40 40 40 41 43 44 45 45 46 48 52 55 57 58 59 60 61 63 64 64 64 65 67 69 72 74 78 83 87
48 54 57 59 59 57 54 52 50 47 45 42 41 39 39 39 40 42 43 44 44 45 48 51 55 58 59 59 60 62 63 64 65 65 66 68 70 74 77 80 85 90 94
41 45 50 53 54 53 50 48 46 44 41 40 39 38 37 38 40 41 42 42 44 47 51 55 58 59 60 61 62 63 64 65 66 67 68 71 74 78 82 85 88 91 91
33 37 43 46 48 47 45 43 41 40 38 37 36 36 37 38 40 40 41 43 47 52 55 57 59 60 61 62 63 64 65 66 68 69 72 75 78 82 86 88 88 84 79
26 31 35 39 40 39 38 37 36 36 35 34 35 36 37 37 38 40 43 47 51 54 56 58 59 61 62 63 64 65 67 69 71 73 75 78 82 85 86 85 81 74 66
24 26 29 32 32 32 32 32 32 32 32 33 35 36 38 39 43 45 47 49 52 54 56 58 60 61 62 63 65 66 69 72 74 76 79 82 84 84 81 76 70 64 59
22 24 26 27 27 28 28 28 28 29 32 35 36 38 40 44 46 46 47 49 52 54 57 58 60 61 63 64 65 67 70 73 76 79 82 83 82 78 72 66 61 57 55
22 22 22 23 23 23 24 25 27 31 35 37 40 40 40 41 43 44 47 49 52 55 57 59 61 63 64 66 68 70 73 76 79 82 82 79 74 68 62 58 55 55 53
18 18 18 18 19 20 23 27 29 32 33 33 33 34 37 39 42 45 48 51 54 56 59 61 63 64 66 69 71 73 75 77 79 78 75 69 62 57 55 54 55 55 54
14 14 16 17 19 20 22 23 24 25 27 29 31 34 37 40 44 47 50 52 55 57 60 62 64 67 69 72 74 76 77 77 75 69 62 56 52 51 52 54 55 55 54
9 9 10 10 11 13 15 16 19 22 25 28 32 36 39 43 46 49 52 54 56 59 62 65 68 70 73 75 77 78 77 72 64 56 50 47 46 48 50 52 52 53 52
3 4 4 5 7 9 12 15 19 23 27 31 35 38 42 45 48 50 53 57 60 63 66 69 72 75 77 79 79 75 68 59 51 45 42 41 43 46 47 48 49 49 48
3 2 3 5 8 11 15 19 23 27 30 34 37 40 43 46 49 53 57 61 65 69 72 76 78 80 80 78 72 63 53 45 40 37 36 38 40 43 45 46 45 44 40
4 6 8 11 14 17 20 23 27 30 32 35 38 41 44 48 53 57 62 67 71 75 78 81 82 80 75 66 55 45 38 34 32 31 32 35 38 41 42 42 40 38 34
10 12 14 17 19 21 24 26 29 31 33 36 39 43 47 53 58 64 69 74 78 81 82 81 76 69 58 46 37 32 29 27 27 28 31 34 37 38 37 36 35 33 29
15 16 18 20 21 24 26 28 30 32 34 38 42 47 53 59 64 70 75 80 82 81 76 68 58 46 35 27 24 22 21 22 24 28 31 33 34 34 32 31 30 29 27
18 19 20 22 24 26 27 28 30 33 37 41 47 53 59 65 70 75 78 78 74 66 56 44 33 23 18 15 14 16 18 21 24 27 29 31 31 30 29 28 28 27 25
20 21 23 24 25 26 27 29 32 36 41 46 52 58 64 69 72 73 71 65 55 43 31 21 14 10 9 10 13 16 19 21 23 26 28 29 29 28 27 27 27 27 26
22 23 24 25 26 27 28 31 34 39 44 50 56 61 65 67 67 64 56 45 32 21 14 11 9 9 10 12 15 17 20 21 24 26 27 28 28 27 27 27 27 27 28
23 24 25 25 26 27 29 33 37 42 48 53 58 60 62 61 57 48 37 26 18 14 13 12 11 12 13 15 17 19 21 22 24 25 27 28 28 28 28 28 28 29 29
24 25 25 26 27 28 31 35 40 45 50 54 57 58 56 51 42 31 23 17 14 13 13 14 14 15 17 18 20 21 23 23 24 25 26 27 27 28 28 28 28 28 28
25 25 25 26 28 30 33 37 42 47 51 54 55 53 48 40 30 23 18 14 13 14 15 16 17 19 19 20 22 23 23 24 24 24 25 26 27 27 27 27 27 28 29
25 26 26 27 29 32 35 39 43 48 51 52 50 46 39 31 24 19 16 14 15 16 18 19 21 22 22 23 23 23 23 23 24 24 24 25 26 26 27 28 28 28 29
26 27 27 29 31 33 37 41 45 48 50 49 45 39 32 26 22 19 17 17 18 19 21 22 23 24 24 24 23 23 23 23 23 23 24 25 26 26 27 28 28 28 28
27 28 29 30 32 35 38 42 46 48 49 46 40 34 28 24 21 20 19 20 21 22 23 24 25 25 25 24 23 23 23 22 23 23 24 24 25 26 27 27 28 27 27
Wind_Direction
243 238 235 235 236 236 238 241 244 247 250 253 257 260 262 266 270 274 278 281 284 285 286 288 291 293 295 296 297 298 298 299 299 299 299 298 297 297 296 296 296 296 296
241 235 231 228 228 230 233 236 241 245 249 252 255 259 262 266 270 274 278 282 284 285 287 289 291 293 294 295 297 298 299 300 300 299 299 298 298 298 298 298 298 299 299
241 235 228 224 223 224 228 233 238 242 246 250 254 258 262 265 270 275 279 282 284 286 288 290 291 293 294 295 297 298 299 300 300 299 299 299 299 299 300 301 302 302 302
236 231 225 220 218 219 223 229 235 240 244 249 254 258 261 266 271 276 280 283 285 288 289 289 291 293 295 297 298 299 300 300 300 300 300 300 301 302 303 304 304 304 304
226 222 219 215 213 215 220 226 232 238 243 249 253 257 262 267 272 276 280 284 286 287 288 289 292 294 296 298 299 299 300 300 300 300 301 302 303 304 305 306 306 305 304
208 206 206 206 208 212 218 225 231 237 243 248 252 258 263 268 274 279 281 283 285 286 289 291 293 296 298 299 300 300 300 301 301 302 304 305 305 306 307 308 307 306 303
183 187 193 198 203 209 216 223 230 237 243 248 253 259 264 269 273 276 281 284 286 289 291 293 295 297 298 299 300 301 302 302 303 305 306 306 307 308 309 308 307 306 304
165 173 183 191 198 206 214 222 230 238 245 249 254 259 262 266 272 278 284 287 289 291 293 295 296 297 298 299 300 301 303 304 305 306 308 310 310 310 309 308 306 305 305
157 166 177 186 196 205 215 223 232 241 245 250 254 259 265 273 281 285 288 290 292 294 296 297 297 298 299 300 301 303 305 306 307 309 310 310 310 309 308 308 307 307 307
151 163 176 187 198 210 222 229 236 244 253 259 265 274 281 286 288 291 293 294 296 297 297 298 299 299 300 301 302 304 305 307 308 309 310 311 310 310 310 310 311 311 311
168 180 193 203 211 223 234 239 248 260 270 276 281 286 289 292 294 295 296 297 298 298 298 299 300 300 301 302 303 304 305 307 308 309 309 309 310 311 313 314 315 315 315
176 189 201 213 228 240 251 260 267 275 281 286 290 293 296 297 298 299 300 299 299 299 300 300 300 301 301 302 303 305 306 308 308 308 308 309 311 314 316 317 318 318 318
167 192 221 249 267 273 277 281 285 290 293 296 299 300 301 302 302 302 302 302 302 302 302 301 301 301 301 302 304 305 307 307 308 308 309 311 314 316 318 319 320 320 320
61 25 324 303 299 298 298 300 301 302 303 304 305 305 305 305 305 305 305 304 304 303 302 301 301 301 302 303 304 305 306 306 307 308 310 314 317 320 321 322 323 323 322
352 332 321 315 312 310 309 309 309 309 309 308 308 308 308 308 308 307 306 305 304 302 302 301 301 302 303 304 304 304 305 307 308 310 314 319 322 324 324 325 327 329 329
327 321 318 316 315 314 314 313 312 312 312 312 312 312 312 311 310 309 307 305 304 303 303 303 303 303 303 303 303 304 307 310 313 317 321 324 326 327 328 330 333 335 335
319 318 318 317 317 316 315 315 315 315 316 316 316 315 315 313 312 310 308 307 306 306 305 305 305 304 304 303 305 308 313 317 321 324 327 328 330 331 333 335 337 338 337
318 319 319 318 317 317 317 317 318 318 319 319 319 319 317 316 314 313 311 310 310 310 309 310 310 309 310 312 315 319 323 325 327 329 331 333 335 337 338 339 340 340 341
319 319 318 318 318 318 318 319 320 321 322 322 322 321 320 318 317 316 316 315 316 317 319 323 328 333 336 334 333 332 330 330 331 334 336 338 340 341 342 342 343 343 344
317 317 317 317 317 318 319 321 322 324 324 325 324 323 322 322 321 322 323 325 329 338 353 7 15 10 357 347 341 338 336 336 336 338 340 342 343 344 345 345 346 346 344
315 316 316 317 317 319 320 322 324 326 327 327 327 326 326 326 327 329 335 344 360 19 28 26 16 3 353 347 342 341 340 340 340 341 343 344 345 347 347 347 346 344 343
315 315 316 317 317 319 321 323 326 328 329 330 330 329 330 331 334 341 353 9 22 26 22 12 2 353 347 344 342 341 341 341 341 343 344 345 346 347 347 345 344 344 344
314 315 315 316 316 318 321 324 327 329 331 332 332 332 333 336 342 349 0 11 17 15 8 1 353 346 342 340 339 339 339 339 340 341 343 345 345 345 345 345 346 348 349
312 312 313 314 316 318 322 325 328 331 332 333 333 334 336 340 345 351 358 2 0 357 354 350 345 342 340 338 337 337 337 338 339 339 341 342 344 345 347 348 349 350 352
309 310 310 312 315 318 322 326 330 332 333 333 334 335 338 340 342 345 347 347 347 346 345 343 341 339 337 336 335 335 336 337 337 338 338 340 343 346 348 349 350 352 354
307 307 308 311 314 318 323 327 331 333 333 333 334 335 337 338 339 339 339 339 339 340 339 339 338 337 336 334 334 334 334 334 335 337 338 340 342 345 348 349 351 353 356
Height
5618 5625 5635 5645 5653 5660 5667 5673 5679 5683 5686 5689 5691 5692 5692 5692 5692 5691 5689 5687 5685 5681 5678 5674 5669 5664 5659 5653 5647 5642 5636 5631 5625 5620 5611 5604 5597 5590 5583 5576 5569 5561 5552
5599 5606 5616 5627 5637 5646 5655 5662 5668 5672 5676 5679 5681 5683 5683 5683 5683 5681 5680 5677 5674 5670 5667 5662 5657 5652 5646 5640 5635 5629 5622 5616 5610 5604 5596 5588 5579 5571 5564 5556 5547 5537 5526
5584 5591 5601 5612 5623 5634 5643 5651 5657 5663 5667 5670 5673 5674 5674 5674 5674 5672 5670 5666 5663 5659 5655 5650 5645 5639 5633 5628 5621 5615 5608 5600 5593 5587 5580 5571 5562 5552 5544 5535 5524 5511 5497
5572 5580 5590 5601 5612 5624 5633 5642 5649 5654 5659 5662 5664 5665 5665 5665 5664 5662 5659 5656 5652 5648 5643 5638 5632 5626 5620 5614 5607 5600 5592 5585 5577 5570 5562 5554 5544 5532 5522 5512 5502 5487 5472
5563 5572 5582 5594 5605 5616 5626 5634 5641 5646 5650 5653 5654 5655 5656 5655 5654 5651 5648 5645 5641 5636 5631 5625 5619 5613 5606 5599 5592 5584 5577 5569 5561 5553 5545 5535 5524 5512 5501 5489 5478 5465 5451
5560 5569 5580 5591 5602 5612 5621 5629 5635 5639 5642 5645 5646 5647 5646 5645 5644 5641 5637 5633 5629 5624 5618 5612 5605 5598 5591 5584 5576 5568 5560 5551 5543 5535 5525 5514 5503 5491 5479 5465 5453 5443 5434
5561 5570 5581 5591 5601 5610 5617 5624 5629 5632 5635 5637 5638 5638 5637 5636 5634 5630 5626 5621 5616 5611 5605 5598 5591 5584 5576 5569 5561 5553 5543 5532 5523 5514 5505 5493 5482 5470 5459 5446 5433 5423 5414
5566 5575 5584 5592 5600 5607 5614 5619 5623 5626 5628 5629 5629 5629 5628 5626 5623 5619 5615 5609 5604 5598 5591 5585 5578 5570 5562 5554 5547 5538 5527 5515 5505 5494 5484 5472 5459 5447 5437 5428 5417 5409 5400
5572 5579 5586 5593 5599 5605 5610 5615 5618 5621 5621 5622 5622 5620 5618 5616 5612 5608 5603 5596 5590 5584 5577 5570 5563 5555 5547 5539 5531 5522 5511 5498 5485 5473 5462 5451 5439 5429 5419 5411 5402 5393 5385
5578 5584 5589 5594 5599 5604 5607 5611 5613 5614 5615 5614 5613 5611 5608 5605 5601 5596 5590 5584 5577 5570 5563 5555 5548 5539 5531 5521 5513 5503 5493 5482 5469 5455 5443 5432 5422 5412 5403 5395 5386 5377 5367
5583 5587 5591 5595 5598 5602 5604 5606 5608 5608 5608 5606 5604 5602 5598 5594 5589 5583 5577 5571 5564 5556 5548 5540 5532 5523 5514 5504 5494 5485 5475 5465 5453 5441 5429 5419 5409 5400 5390 5381 5370 5360 5351
5586 5589 5592 5595 5597 5599 5601 5602 5603 5602 5601 5599 5596 5592 5587 5582 5576 5570 5564 5557 5550 5543 5534 5525 5516 5506 5496 5486 5476 5466 5456 5446 5436 5426 5417 5409 5400 5390 5380 5369 5359 5348 5338
5590 5591 5593 5595 5596 5597 5598 5598 5597 5595 5593 5589 5585 5581 5576 5571 5565 5558 5552 5544 5536 5527 5518 5508 5497 5488 5477 5467 5457 5447 5438 5429 5421 5414 5407 5399 5390 5381 5371 5361 5350 5340 5329
5591 5592 5593 5593 5594 5593 5593 5591 5589 5586 5583 5580 5575 5571 5566 5560 5554 5547 5539 5530 5520 5510 5499 5488 5477 5467 5457 5447 5437 5429 5422 5416 5410 5404 5398 5390 5382 5372 5362 5352 5343 5333 5324
5591 5591 5591 5590 5589 5588 5586 5584 5581 5579 5575 5572 5567 5562 5557 5550 5543 5534 5524 5514 5503 5491 5479 5467 5455 5445 5435 5427 5420 5415 5411 5406 5401 5396 5390 5383 5374 5365 5355 5345 5336 5326 5317
5590 5589 5587 5586 5584 5582 5580 5578 5575 5572 5568 5564 5559 5553 5546 5539 5529 5519 5507 5494 5482 5469 5457 5445 5434 5424 5417 5411 5407 5404 5401 5398 5394 5389 5383 5376 5367 5358 5349 5340 5331 5322 5314
5587 5585 5583 5581 5579 5577 5575 5572 5569 5565 5561 5556 5550 5543 5535 5525 5514 5502 5488 5473 5459 5446 5433 5422 5414 5408 5404 5401 5399 5397 5395 5392 5388 5383 5377 5369 5361 5353 5344 5336 5328 5320 5312
5584 5582 5579 5577 5575 5572 5569 5566 5562 5558 5553 5547 5540 5531 5521 5509 5496 5482 5467 5451 5436 5424 5414 5406 5401 5398 5397 5396 5395 5393 5391 5388 5383 5378 5371 5364 5356 5348 5341 5333 5326 5318 5311
5580 5578 5575 5572 5570 5566 5563 5560 5555 5550 5544 5537 5528 5518 5506 5492 5478 5463 5448 5433 5419 5410 5403 5399 5396 5395 5395 5394 5393 5391 5388 5384 5379 5373 5367 5360 5353 5345 5338 5331 5324 5316 5309
5576 5573 5570 5567 5564 5561 5557 5553 5548 5542 5535 5526 5516 5505 5491 5477 5462 5447 5432 5420 5411 5404 5401 5399 5398 5397 5396 5394 5392 5389 5385 5381 5375 5370 5363 5357 5350 5343 5336 5329 5322 5315 5307
5571 5568 5565 5562 5559 5555 5551 5546 5540 5533 5525 5516 5505 5493 5479 5465 5451 5437 5426 5417 5411 5407 5404 5402 5400 5399 5396 5394 5391 5387 5383 5378 5372 5367 5360 5354 5347 5341 5334 5327 5320 5313 5307
5566 5563 5560 5556 5553 5549 5544 5539 5532 5525 5516 5505 5494 5481 5469 5456 5444 5433 5425 5419 5415 5411 5408 5405 5403 5400 5397 5393 5389 5385 5380 5375 5370 5364 5358 5352 5346 5339 5333 5326 5320 5313 5305
5561 5557 5554 5551 5547 5542 5537 5531 5524 5516 5507 5496 5484 5473 5461 5450 5441 5433 5427 5422 5418 5414 5411 5407 5404 5400 5396 5392 5387 5383 5378 5373 5368 5362 5356 5350 5344 5339 5333 5326 5318 5311 5304
5555 5552 5548 5545 5540 5536 5530 5524 5517 5508 5498 5487 5476 5466 5456 5447 5440 5433 5428 5423 5419 5415 5411 5407 5403 5399 5394 5390 5385 5380 5376 5371 5365 5360 5355 5349 5344 5337 5331 5324 5317 5310 5303
5549 5546 5542 5539 5534 5529 5524 5517 5509 5500 5490 5479 5469 5460 5452 5445 5439 5433 5428 5424 5419 5415 5411 5406 5401 5397 5392 5387 5382 5378 5373 5368 5363 5358 5353 5347 5341 5335 5329 5323 5316 5309 5303
5543 5540 5536 5532 5528 5522 5516 5509 5501 5492 5482 5472 5463 5455 5448 5442 5437 5432 5428 5423 5418 5414 5409 5404 5399 5394 5389 5384 5379 5375 5370 5365 5360 5355 5350 5345 5340 5334 5328 5322 5315 5309 5303